Sussex, NJ

12:49 PM EST on November 22, 2019 (GMT -0500)
Sussex

Weather History for KFWN - September, 2019

Change the Weather History Date:

Monday, September 16, 2019

  Actual Average Record
Temperature  
Mean Temperature 66 °F -  
Max Temperature 75 °F 72 °F 87 °F (1993)
Min Temperature 57 °F 47 °F 31 °F (1964)
Cooling Degree Days 1    
Growing Degree Days 16 (Base 50)    
Moisture  
Dew Point 59 °F    
Average Humidity 87    
Maximum Humidity 97    
Minimum Humidity 62    
Precipitation  
Precipitation 0.01 in - - ()
Sea Level Pressure  
Sea Level Pressure 30.07 in    
Wind  
Wind Speed 1 mph ()    
Max Wind Speed 7 mph    
Max Gust Speed -    
Visibility 6.8 miles    
Events Fog , Rain    
Averages and records for this station are not official NWS values.
T = Trace of Precipitation, MM = Missing Value Source: Averaged Metar Reports

Daily Weather History Graph

Daily Weather History Graph

Search for Another Location

Airport or City:

Astronomy

Sep. 16, 2019 Rise Set
Actual Time 6:39 AM EDT 7:06 PM EDT
Civil Twilight 6:12 AM EDT 7:33 PM EDT
Nautical Twilight 5:39 AM EDT 8:06 PM EDT
Astronomical Twilight 5:05 AM EDT 8:39 PM EDT
Moon 8:38 PM EDT (9/16) 8:45 AM EDT (9/16)
Length of Visible Light 13h 21m
Length of Day
12h 26m
Waning Gibbous, 94% of the Moon is Illuminated
Sep 16
Waning Gibbous
Sep 21
Last Quarter
Sep 28
New
Oct 5
First Quarter
Oct 13
Full

Hourly Weather History & Observations

Time (EDT) Temp. Dew Point Humidity Pressure Visibility Wind Dir Wind Speed Gust Speed Precip Events Conditions
12:53 AM 60.1 °F 57.9 °F 93% 30.08 in 10.0 mi Calm Calm - N/A   Clear
1:53 AM 59.0 °F 57.0 °F 93% 30.07 in 10.0 mi Calm Calm - N/A   Partly Cloudy
2:53 AM 60.1 °F 57.9 °F 93% 30.06 in 10.0 mi Calm Calm - N/A   Mostly Cloudy
3:53 AM 61.0 °F 59.0 °F 93% 30.07 in 10.0 mi Calm Calm - 0.00 in Rain Light Rain
4:53 AM 61.0 °F 59.0 °F 93% 30.08 in 10.0 mi Calm Calm - 0.00 in   Overcast
5:53 AM 62.1 °F 59.0 °F 90% 30.07 in 10.0 mi Calm Calm - N/A   Overcast
6:53 AM 62.1 °F 60.1 °F 93% 30.09 in 10.0 mi Calm Calm - N/A   Overcast
7:53 AM 63.0 °F 60.1 °F 90% 30.08 in 10.0 mi Calm Calm - N/A   Overcast
8:53 AM 63.0 °F 61.0 °F 93% 30.09 in 10.0 mi Calm Calm - 0.01 in   Overcast
9:53 AM 66.9 °F 61.0 °F 81% 30.09 in 10.0 mi NNE 5.8 mph - N/A   Overcast
10:53 AM 68.0 °F 61.0 °F 78% 30.09 in 10.0 mi NNE 6.9 mph - N/A   Overcast
11:53 AM 69.1 °F 60.1 °F 73% 30.08 in 10.0 mi ENE 5.8 mph - N/A   Overcast
12:53 PM 71.1 °F 61.0 °F 70% 30.07 in 10.0 mi NNE 3.5 mph - N/A   Overcast
1:07 PM 72.0 °F 62.1 °F 71% 30.07 in 10.0 mi North 4.6 mph - N/A   Overcast
1:53 PM 73.9 °F 61.0 °F 64% 30.05 in 10.0 mi Variable 3.5 mph - N/A   Mostly Cloudy
2:53 PM 75.9 °F 62.1 °F 62% 30.04 in 10.0 mi Variable 3.5 mph - N/A   Overcast
4:53 PM 75.0 °F 62.1 °F 64% 30.01 in 10.0 mi Calm Calm - N/A   Mostly Cloudy
5:53 PM 73.0 °F 63.0 °F 71% 30.01 in 10.0 mi Calm Calm - N/A   Partly Cloudy
6:53 PM 71.1 °F 63.0 °F 75% 30.02 in 10.0 mi NW 4.6 mph - N/A   Clear
7:53 PM 64.9 °F 62.1 °F 90% 30.03 in 10.0 mi Calm Calm - N/A   Clear
8:53 PM 62.1 °F 60.1 °F 93% 30.04 in 10.0 mi Calm Calm - N/A   Clear
9:44 PM 62.1 °F 60.1 °F 93% 30.06 in 1.8 mi Calm Calm - N/A   Clear
9:53 PM 60.1 °F 59.0 °F 96% 30.06 in 3.0 mi Calm Calm - N/A   Clear
9:56 PM 61.0 °F 59.0 °F 93% 30.06 in 1.8 mi Calm Calm - N/A   Clear
9:58 PM 60.1 °F 59.0 °F 96% 30.06 in 1.0 mi Calm Calm - N/A   Mist
10:05 PM 59.0 °F 57.9 °F 96% 30.06 in 0.5 mi Calm Calm - N/A Fog Fog
10:11 PM 60.1 °F 57.9 °F 93% 30.06 in 1.5 mi Calm Calm - N/A   Partly Cloudy
10:26 PM 59.0 °F 57.9 °F 96% 30.07 in 1.8 mi Calm Calm - N/A   Mostly Cloudy
10:34 PM 60.1 °F 57.9 °F 93% 30.07 in 3.0 mi Calm Calm - N/A   Mostly Cloudy
11:22 PM 57.9 °F 57.0 °F 97% 30.09 in 1.5 mi Calm Calm - 0.00 in   Partly Cloudy
11:26 PM 57.9 °F 57.0 °F 97% 30.09 in 0.8 mi Calm Calm - 0.00 in   Partly Cloudy
11:34 PM 57.9 °F 57.0 °F 97% 30.09 in 0.2 mi Calm Calm - 0.00 in Fog Fog
11:42 PM 57.9 °F 55.9 °F 93% 30.09 in 1.0 mi Calm Calm - 0.00 in   Clear
11:53 PM 57.9 °F 55.9 °F 93% 30.09 in 2.5 mi Calm Calm - 0.00 in   Partly Cloudy